Showing default

CENTISPACE-2 S6, 68355

Orbit data source: Space-Track

CENTISPACE-2 S6, 68355 is a payload satellite owned by Centispace (CN) in LEO that was launched on Sun, 22 Mar 2026 UTC via a JIELONG-3 launch vehicle from the Yellow Sea Launch Area, China (YSLA). Payload-class satellites include a variety of spacecraft equipped with specific instruments for various scientific and technological missions. These include communications satellites like Starlink; space stations such as the ISS; scientific satellites like the Hubble; Earth observation satellites from companies like Planet Labs, Umbra, and HawkEye 360; GPS; miniature CubeSats for education and research; and military/defense satellites.

Loading next visibility...
Identifier
68355, 2026-060F
Orbit
LEO
Country
Flag of CNCN / PRC
Related business
Manufacturer
DFH Shenzhen
Mission
Operational spacecraft
Bus & Motor
WK01, Unknown motor
Mass
140 kg wet, 140 kg dry
Launch date (UTC)
2026-03-22 (3 months ago)
Launch vehicle
JIELONG-3
Launch site
Yellow Sea Launch Area, China (YSLA)
Object type
Payload
Rocket body
Debris
Shape & HBR
Unknown shape, 1.1 m
Radar Cross Section
Large (>1 m²)

Expand to show TLE details & history
Last TLE update: 22 hours ago

TLE from 22 hours ago
0 CENTISPACE-2 S6
1 68355U 26060F   26170.92957089  .00000515  00000-0  13360-3 0  9993
2 68355  54.9769  26.1024 0015852 306.5909  53.3626 14.64009357 13151
Epoch: 2026-06-19T22:18Z
TLE epoch observation values (Epoch: 2026-06-19T22:18:34.924Z)
Latitude
-0.00006°
Longitude
143.30534°
Altitude
674.654 km
Speed
7.524 km/s
True Right ascension
01h 44m 24s
True Declination
0° 00' 00"
Sunlit
Object was in daylight at epoch
Visualization orbit readout
Latitude
Unknown
Longitude
Unknown
Altitude
Unknown
Speed
Unknown
Apparent Right ascension
Unknown
Apparent Declination
Unknown
Sunlit
N/A
Visualization observer readout
Local Sidereal Time
07:19:18
Azimuth
Unknown
Elevation
Unknown
Doppler factor
Unknown
Orbital elements
Apogee altitude
691.414 km
Perigee altitude
669.036 km
Semi-major axis
7,058.362 km
Eccentricity
0.00159
Inclination
54.9769°
RAAN
26.1024°
Arg. of periapsis
306.5909°
True anomaly
53.50853°
Mean anomaly
53.3626°
Eccentric anomaly
53.43555°
Mean motion
3.66005 °/min
Orbital period
98.36 mins
BSTAR
0.0001336
Loading maneuver chart data...
Computing Atmospheric mass density...
Loading historical data...
Loading historical data...
Loading historical data...
Loading historical data...
Loading historical data...
Loading historical data...
Loading historical data...

Documentation

Showing up to 5 results
|